Location: Columbus
(35.2256°N, 82.1549°W)
Time: 19:12:45
(UTC-05:00)

Envisat - Pass Details

Date: 02 December 2021
Orbit: 764 x 766 km, 98.2° (Epoch: 21 January)

Event Time Altitude Azimuth Distance (km) Brightness Sun altitude
Rises 06:49:26 0° 350° (N) 3,236 5.9 -6.5°
Reaches altitude 10° 06:52:50 10° 326° (NW) 2,305 5.0 -5.9°
Maximum altitude 06:55:23 14° 296° (WNW) 2,032 4.5 -5.4°
Drops below altitude 10° 06:57:55 10° 265° (W) 2,298 4.9 -4.9°
Sets 07:01:19 0° 241° (WSW) 3,219 5.9 -4.3°
